Regional Weather Roundup
Issued by NWS

Home | Current Version | Previous Version | Graphics & Text | Print | Product List | Glossary On
Versions: 1 2 3 4 5 6 7 8 9 10 11 12 13 14 15 16 17 18 19 20 21 22 23 24 25 26 27 28 29 30 31 32 33 34 35 36 37 38 39 40 41 42 43 44 45 46 47 48 49 50
000
ASUS43 KDTX 240101
RWRMI
MICHIGAN HOURLY REGIONAL WEATHER ROUNDUP
NATIONAL WEATHER SERVICE DETROIT/PONTIAC MI
900 PM EDT SUN APR 23 2017

NOTE: "FAIR" INDICATES FEW OR NO CLOUDS BELOW 12,000 FEET WITH NO
SIGNIFICANT WEATHER AND/OR OBSTRUCTION TO VISIBILITY.

MIZ047>049-052>055-059>063-066>070-074>076-081>083-240200-
SOUTHEAST LOWER MICHIGAN

CITY           SKY/WX    TMP DP  RH WIND       PRES   REMARKS
ADRIAN         CLEAR     57  38  48 CALM      30.04S
ALMA           MOCLDY    51  42  71 NE12      30.07R
ANN ARBOR      CLEAR     54  38  54 CALM      30.04S
BAD AXE        PTCLDY    41  36  81 NE9       30.11R
CARO           CLEAR     49  39  68 E8        30.09R
DETROIT CITY   CLEAR     60  34  37 NW3       30.04F
DETROIT        PTCLDY    61  25  25 CALM      30.05S
FLINT          CLEAR     63  30  28 SW5       30.04S
GROSSE ILE     CLEAR     54  26  33 CALM      30.04R
HILLSDALE      CLEAR     52  36  54 CALM      30.03S
HOWELL         CLEAR     59  23  24 CALM      30.04S

CITY           SKY/WX    TMP DP  RH WIND       PRES   REMARKS
JACKSON        CLEAR     61  27  27 CALM      30.05R
LAMBERTVILLE   CLEAR     54  33  44 CALM      30.05R
LANSING        CLEAR     64  26  23 CALM      30.05R
LAPEER         FAIR      54  40  59 NE3       30.07R
MASON          CLEAR     60  35  39 CALM      30.05R
MONROE         CLEAR     53  27  36 CALM      30.04S
MT. CLEMENS    PTCLDY    55  37  50 CALM      30.03S
PONTIAC        PTCLDY    61  31  32 CALM      30.04R
PORT HOPE        N/A     41  38  89 N10       30.10S
PORT HURON     CLEAR     43  36  75 N3        30.09R
TRI CITIES     CLEAR     47  43  86 NE17      30.09R
MIDLAND        FAIR      47  37  67 NE10      30.09R
TROY           CLEAR     61  28  28 CALM      30.06F
SAGINAW HB     PTCLDY    50  37  62 NE14G21   30.08R
$$
MIZ043>046-050>051-056>058-064>065-071>073-077>080-240200-
SOUTHWEST LOWER MICHIGAN

CITY           SKY/WX    TMP DP  RH WIND       PRES   REMARKS
BATTLE CREEK   CLEAR     62  26  25 NW5       30.05S
BENTON HARBOR  CLEAR     52  28  39 CALM      30.06R
BIG RAPIDS     CLEAR     57  37  47 CALM      30.05R
COLDWATER      CLEAR     60  30  32 CALM      30.04R
FREMONT        FAIR      56  35  43 W5        30.05R
HOLLAND        CLEAR     53  34  48 W5        30.07R
GRAND RAPIDS   PTCLDY    57  35  43 W8        30.05R
IONIA          FAIR      61  36  38 SW5       30.04R
KALAMAZOO      CLEAR     58  28  32 N8        30.05S
LUDINGTON      CLEAR     43  38  83 N5        30.06S
MARSHALL       CLEAR     61  27  27 CALM      30.04R
MOUNT PLEASANT CLEAR     50  37  62 E10G16    30.08R
MUSKEGON       MOCLDY    47  37  68 SW3       30.07R
SOUTH HAVEN    CLEAR     53  31  43 CALM      30.06R
$$
MIZ016>042-240200-
NORTHERN LOWER MICHIGAN

CITY           SKY/WX    TMP DP  RH WIND       PRES   REMARKS
ALPENA         CLOUDY    44  29  55 N3        30.13R
BEAVER ISLAND  CLOUDY    38  19  46 N8        30.17R WCI  32
BELLAIRE       PTCLDY    40  26  57 N5        30.14R
CADILLAC       CLEAR     43  33  66 N5        30.08R
CHARLEVOIX     PTCLDY    38  28  69 N10       30.17S WCI  31
FRANKFORT      PTCLDY    41  32  68 NE3       30.11R
GAYLORD        CLOUDY    46  29  51 NE7       30.11R
GRAYLING       PTCLDY    46  35  64 N7        30.11R
HARBOR SPRINGS CLOUDY    40  21  46 N8        30.15R WCI  35
HOUGHTON LAKE  MOCLDY    54  39  57 E7        30.08R
MANISTEE       CLOUDY    47  35  63 NE10      30.08R
OSCODA         CLOUDY    45  36  70 NE7       30.12R
PELLSTON       CLOUDY    41  23  48 NW6       30.15R
ROGERS CITY    CLOUDY    41  22  47 NW8       30.15R
TRAVERSE CITY  MOCLDY    40  28  62 N7        30.12R
$$
MIZ007>008-015-240200-
EASTERN UPPER MICHIGAN

CITY           SKY/WX    TMP DP  RH WIND       PRES   REMARKS
KINROSS        CLOUDY    31  23  72 NW10      30.17R WCI  22
MACKINAC ISLAN CLOUDY    36  23  60 N9        30.16R WCI  29
NEWBERRY       CLOUDY    31  21  67 N6        30.17S WCI  25
S. S. MARIE    MOCLDY    34  24  67 NW10      30.16R WCI  26
MUNISING         N/A     33  23  66 NE10      30.18S WCI  25
$$
MIZ004>006-011>014-085-240200-
CENTRAL UPPER MICHIGAN

CITY           SKY/WX    TMP DP  RH WIND       PRES   REMARKS
MANISTIQUE     CLOUDY    35  19  52 N6        30.17R WCI  29
ESCANABA       CLOUDY    36  21  54 N9G16     30.16S WCI  29
MENOMINEE      CLOUDY    39  27  62 E16       30.14S WCI  30
SAWYER-GWINN   CLOUDY    30  21  69 NE10      30.16S WCI  21
$$
MIZ001>003-009>011-084-240200-
WESTERN UPPER MICHIGAN

CITY           SKY/WX    TMP DP  RH WIND       PRES   REMARKS
IRON MOUNTAIN  CLOUDY    38  22  52 E8        30.11R WCI  32
HOUGHTON       CLOUDY    31  22  69 E7        30.16S WCI  24
COPPER HARBOR    N/A     31  17  56 CALM      30.18F
IRONWOOD       CLOUDY    36  29  75 E9        30.10S WCI  29
$$

ABBREVIATIONS USED IN REMARKS
   TC - TEMPERATURE IN CELSIUS
  WCI - WIND CHILL INDEX
   HX - HEAT INDEX
  VSB - VISIBILITY




USA.gov is the U.S. government's official web portal to all federal, state and local government web resources and services.